Theta_e
314 313 313 313 313 313 313 312 312 312 312 311 311 310 310 309 309 309 309 308 309 309 309 310 310 308 302 290 289 299 308 305 302 301 297 296 296 295 292 295 296 296 298 302 303 299 296
313 313 313 313 312 312 312 312 311 311 311 311 310 309 309 308 309 308 308 307 308 308 309 310 310 309 295 281 297 300 300 300 299 298 296 297 295 297 295 294 293 296 297 299 301 301 299
313 313 312 313 312 312 312 311 311 311 310 310 309 308 308 308 308 307 307 307 307 309 307 310 309 303 289 285 295 294 299 298 298 296 293 294 297 294 293 292 296 296 291 294 297 299 299
312 312 312 312 312 311 311 311 310 310 310 309 309 307 307 307 307 306 305 306 306 310 307 304 306 296 283 295 294 292 298 296 295 295 293 295 298 295 292 293 291 290 291 285 291 296 299
312 312 312 311 311 311 311 310 310 310 309 309 308 307 306 306 306 304 304 304 305 305 303 299 289 290 281 295 288 291 293 288 289 290 293 295 295 291 292 286 283 287 281 284 287 294 296
312 311 311 311 311 311 310 310 310 310 309 308 307 307 307 305 305 302 302 302 302 298 295 292 290 281 285 283 287 290 290 289 286 287 288 289 288 285 285 283 275 277 283 284 285 290 293
311 311 311 310 310 310 310 310 310 309 309 308 307 308 307 304 304 301 294 288 285 284 287 280 280 281 284 287 290 288 289 285 285 283 278 283 280 276 279 283 285 283 283 283 286 290 291
311 311 310 310 310 310 310 310 309 309 308 307 307 307 306 303 301 299 289 284 283 285 280 284 284 284 286 286 281 285 289 279 278 276 281 276 267 280 283 286 284 283 280 280 286 291 289
310 310 310 310 309 309 309 309 309 309 308 306 306 306 305 303 300 289 286 284 289 291 280 280 283 283 283 284 280 280 284 280 277 276 276 274 274 281 281 279 280 280 280 280 282 288 291
310 310 309 309 309 309 309 309 308 309 308 307 306 304 302 301 289 285 283 288 292 288 268 275 279 281 283 283 278 285 284 280 279 275 276 277 280 279 277 275 280 270 285 284 283 281 280
309 309 309 309 308 308 308 308 308 308 308 308 306 304 302 296 284 282 286 289 292 282 260 276 278 286 283 278 279 279 285 281 276 275 277 274 277 275 274 279 283 277 285 282 281 278 278
309 309 309 308 308 308 308 308 307 307 307 307 307 302 299 289 284 285 286 288 282 270 256 273 278 277 276 278 278 279 279 282 281 276 278 276 282 280 277 280 284 284 283 282 281 279 272
308 308 308 308 308 307 307 307 307 307 306 307 306 300 294 289 282 287 285 280 269 263 275 272 273 276 275 273 275 275 274 272 270 266 267 273 274 280 280 276 280 277 270 265 272 272 270
308 308 308 307 307 307 307 307 306 306 306 306 304 297 293 290 288 285 282 274 265 271 271 277 276 275 271 273 272 272 271 269 272 271 267 265 266 275 279 275 273 274 274 272 262 269 271
307 307 307 307 307 306 306 306 306 306 306 304 297 285 287 289 288 284 277 267 264 271 274 273 274 269 269 272 270 270 268 270 269 273 266 265 268 277 278 278 275 273 274 275 266 269 271
307 307 306 306 306 306 306 306 306 305 305 301 283 281 285 288 285 281 275 272 271 277 276 275 267 270 266 268 268 267 268 271 272 275 276 271 265 275 277 278 278 275 277 270 269 268 262
306 306 306 306 305 305 305 305 305 304 303 297 281 277 284 287 284 277 269 270 275 278 277 273 270 269 268 267 267 265 266 272 273 274 275 270 269 270 275 271 270 271 269 268 271 272 264
306 306 305 305 304 304 304 304 304 304 302 290 279 275 285 284 275 273 271 275 280 277 277 275 274 272 269 269 266 265 267 269 275 274 271 272 267 265 268 275 277 274 270 270 267 269 268
305 305 305 304 304 303 304 304 304 303 299 283 277 276 284 281 270 271 273 275 277 276 276 275 273 274 272 268 262 263 269 275 275 274 274 271 266 263 266 270 274 270 271 271 272 271 266
305 304 304 304 303 303 303 303 303 302 299 283 277 273 277 277 275 271 271 273 273 278 276 276 274 274 270 268 269 263 268 274 276 274 281 273 266 264 263 267 271 268 269 270 270 267 267
304 304 304 303 303 302 302 302 302 301 298 283 278 275 276 272 274 272 272 273 272 271 275 275 273 273 265 262 264 265 269 270 273 275 271 267 263 266 269 271 272 270 269 269 267 269 267
304 303 303 302 302 302 301 301 301 300 295 282 276 273 272 270 273 270 272 269 272 272 272 271 268 273 262 261 265 264 267 261 262 270 267 268 262 266 263 269 271 269 269 270 269 269 269
303 303 302 302 302 301 301 300 301 299 292 281 280 280 275 272 272 268 268 268 271 274 274 275 271 265 262 267 269 271 271 273 272 271 267 266 262 260 259 266 267 265 268 269 270 270 269
302 302 302 301 300 300 300 300 300 298 292 284 281 277 270 269 270 274 272 275 275 274 266 271 267 264 272 275 274 271 270 273 272 270 271 265 252 254 258 263 257 267 273 272 271 270 271
301 301 301 300 300 299 299 299 299 299 295 284 283 278 268 265 273 272 272 273 268 267 270 272 273 273 274 271 267 263 266 267 267 268 264 258 254 255 257 253 262 264 269 269 267 269 272
301 301 300 299 299 299 298 298 298 298 296 285 283 281 273 268 269 274 271 271 266 264 267 272 274 273 271 269 266 258 260 263 263 265 269 264 255 259 254 253 254 263 267 272 272 267 272
301 300 299 299 298 298 298 298 298 298 296 287 284 283 277 265 270 274 270 268 268 267 265 266 269 269 269 265 264 261 262 263 259 255 259 261 258 255 254 251 259 264 267 271 262 265 273
302 301 299 299 298 298 298 299 299 300 299 290 285 284 280 266 274 278 279 270 272 266 263 265 265 266 265 262 261 260 260 261 260 261 258 258 255 255 254 252 256 266 269 265 266 268 272
302 301 300 299 298 298 299 299 300 300 299 293 286 288 284 280 275 279 281 280 279 276 270 260 267 264 267 262 258 257 261 260 260 259 266 260 262 259 260 262 266 266 267 265 263 264 267
Wind_Speed
19 20 20 20 20 21 21 21 21 22 22 23 22 23 23 23 23 22 23 23 22 19 17 14 14 2 3 3 4 7 19 14 8 9 9 8 13 18 23 13 23 28 21 13 23 13 5
19 20 20 21 21 22 22 22 22 23 24 23 23 23 23 23 22 22 22 23 23 18 14 17 7 6 2 6 8 9 9 12 8 4 8 8 8 7 18 25 22 10 19 22 16 19 13
19 20 20 21 21 22 22 23 24 24 24 23 23 23 23 22 20 22 21 22 21 15 8 15 6 2 3 5 12 14 7 3 5 5 9 14 10 7 6 7 14 20 28 10 21 16 12
19 20 20 21 21 22 23 24 24 25 24 23 23 24 24 23 20 20 21 21 17 14 3 21 10 3 3 5 16 16 9 10 8 10 14 13 7 8 4 6 8 24 18 24 18 19 12
19 20 20 21 22 23 23 24 24 25 23 24 24 24 25 23 19 19 20 18 10 18 14 10 16 3 4 17 22 6 5 16 19 10 4 8 4 7 4 4 6 10 19 27 22 15 15
20 20 21 21 22 23 24 24 24 24 23 23 25 25 24 22 17 19 17 10 6 8 13 4 13 7 10 19 13 6 10 22 7 7 6 2 4 8 8 10 13 7 14 20 24 18 24
19 19 20 21 22 23 24 25 24 23 23 24 25 24 24 22 16 15 9 6 8 7 9 7 8 4 12 21 6 12 11 24 7 3 4 4 5 12 11 17 10 14 15 12 16 15 17
19 20 20 21 22 23 23 24 24 23 22 24 24 25 25 22 15 16 4 7 2 4 5 6 12 7 17 11 7 19 18 13 6 8 6 4 4 9 13 7 10 12 18 16 10 16 25
19 19 20 21 21 22 23 24 24 22 22 23 21 24 25 23 7 6 5 3 6 4 1 6 8 9 14 10 6 17 16 15 4 7 9 4 6 13 10 9 5 7 14 8 9 6 18
18 19 20 20 21 22 23 23 23 22 22 22 24 23 23 21 9 5 2 9 3 3 6 14 12 7 17 17 7 12 12 4 6 8 8 5 9 14 14 6 4 4 10 12 4 3 3
18 19 20 20 21 22 23 23 23 22 21 19 20 25 24 11 1 3 7 7 2 5 7 20 11 6 17 11 11 17 14 6 4 14 4 6 10 13 15 5 1 3 6 10 5 3 5
18 18 19 20 21 22 23 23 23 23 21 18 17 20 21 5 2 3 7 1 4 8 5 11 7 18 23 15 9 15 13 16 1 5 5 4 8 6 7 15 4 1 5 3 5 4 6
17 18 19 20 21 22 22 23 23 23 23 18 12 17 13 2 7 12 4 5 8 8 7 12 12 19 16 17 13 16 18 24 17 11 11 8 2 8 17 8 11 12 5 2 4 6 4
17 18 19 20 21 22 23 24 24 24 24 18 10 15 11 5 11 7 6 9 10 6 4 7 11 15 7 14 10 14 13 19 8 10 6 8 10 15 13 4 9 4 1 1 6 5 4
16 17 19 20 21 22 23 25 25 25 23 18 6 5 5 13 11 5 8 9 2 4 9 10 15 6 7 13 8 10 13 16 5 16 7 7 6 4 14 5 10 7 2 3 3 1 4
15 17 18 19 21 22 23 25 26 26 22 13 4 3 7 14 7 7 8 9 2 2 6 4 7 6 6 10 12 13 13 7 18 15 11 5 6 6 12 8 9 5 6 2 2 1 2
15 16 17 19 21 22 23 25 26 26 23 5 5 5 4 12 6 8 6 4 2 3 5 5 4 5 5 6 4 7 8 9 14 19 9 3 2 7 6 16 13 12 5 4 2 2 4
14 15 17 18 20 22 24 24 26 26 22 10 3 5 6 5 8 3 4 4 6 4 4 3 2 3 3 5 5 4 6 5 10 13 11 3 2 4 3 3 9 13 9 3 2 3 4
13 14 15 17 19 21 22 23 24 25 15 3 4 1 5 6 6 4 5 4 1 5 4 5 3 3 2 4 5 2 6 10 10 12 13 8 5 7 9 4 16 10 22 10 4 2 7
12 13 14 16 19 20 22 24 25 24 12 6 4 4 5 5 2 4 4 4 6 3 1 3 4 4 4 3 1 6 5 7 14 8 22 4 3 3 2 2 6 15 24 22 6 4 3
11 12 13 15 18 20 22 24 25 25 12 5 5 0 2 4 4 2 1 3 5 6 2 5 3 4 1 4 7 4 5 8 7 12 9 7 4 4 3 6 2 17 22 23 20 15 7
9 11 12 13 16 18 20 23 24 26 8 7 3 3 3 0 2 2 5 2 3 5 2 4 2 9 4 4 7 6 4 0 5 11 7 7 3 4 4 8 6 8 20 18 15 13 8
8 9 10 12 14 15 18 21 23 25 10 4 1 2 5 3 1 3 3 4 4 1 4 4 4 2 2 7 7 10 9 9 6 7 6 8 4 5 5 8 5 5 13 11 6 11 7
6 7 7 9 11 13 15 18 21 20 10 4 1 3 5 3 2 3 2 3 4 3 4 4 4 4 6 7 9 2 4 8 7 5 4 5 3 3 3 6 7 5 5 6 4 7 11
3 5 5 6 8 10 12 15 18 16 14 4 1 3 4 2 1 2 3 4 5 4 3 4 3 5 6 5 5 7 5 4 2 2 1 3 4 4 5 2 4 7 6 5 5 5 8
3 4 4 4 5 7 9 11 13 14 8 4 2 2 4 5 6 3 2 1 1 4 7 5 3 4 5 3 4 4 2 3 7 12 5 3 5 6 4 6 2 7 5 4 0 2 8
5 3 2 2 2 4 5 8 9 9 5 4 1 3 4 2 4 5 3 5 4 2 3 5 7 8 3 4 4 2 3 2 3 4 6 6 5 4 2 1 7 6 5 1 5 5 7
7 6 5 4 3 3 6 8 10 9 4 3 1 3 4 2 5 6 5 5 3 2 3 5 4 4 4 6 3 2 1 2 2 4 2 2 2 2 2 4 4 3 2 6 5 3 3
8 9 7 6 4 5 7 8 10 11 3 5 1 1 2 2 6 3 4 3 6 9 6 2 4 3 4 4 1 2 2 1 1 4 1 3 6 4 8 7 3 3 5 4 4 4 3
Wind_Direction
31 27 22 17 13 11 10 8 5 3 3 1 0 359 356 354 352 346 346 348 346 352 347 339 336 190 313 1 288 290 326 325 324 317 330 297 254 227 236 228 227 238 233 232 228 210 191
28 25 20 17 13 10 9 7 5 3 2 2 3 358 356 355 352 345 348 348 350 355 346 352 25 125 62 37 318 315 318 322 324 329 294 289 258 298 258 246 226 239 239 250 240 226 214
27 24 20 16 13 11 9 7 4 3 2 3 2 360 357 356 351 344 348 349 357 358 24 38 47 11 72 22 340 323 311 265 290 285 281 287 284 263 331 273 276 231 249 247 235 216 213
26 23 20 16 13 11 9 7 3 2 1 1 1 358 358 358 353 343 344 348 358 31 40 36 25 351 272 357 342 9 330 309 278 267 261 259 234 269 247 274 299 228 232 226 228 220 220
23 23 20 16 14 11 9 7 3 2 0 1 358 357 358 359 351 346 336 338 353 27 31 39 17 12 6 329 347 320 351 320 303 293 252 272 180 230 196 240 266 235 213 229 221 198 214
25 22 20 16 14 11 8 6 3 2 358 355 354 354 357 358 349 351 331 344 358 26 359 17 23 34 338 337 326 311 321 341 280 304 306 163 182 240 224 217 230 234 220 222 220 197 201
24 22 19 16 14 11 7 5 4 3 360 356 355 354 356 358 8 7 353 19 18 359 28 91 331 314 331 327 311 334 354 335 358 352 319 327 234 230 250 240 265 247 261 252 216 187 190
23 21 19 16 14 11 8 6 4 5 4 2 357 356 355 358 18 14 19 70 125 238 322 9 4 344 337 335 315 340 351 359 336 324 332 353 253 346 318 269 219 236 236 254 288 195 202
22 20 18 16 14 10 8 7 5 3 5 5 5 2 354 353 5 43 59 37 296 141 339 343 342 346 347 334 322 336 346 330 297 336 328 262 279 328 311 301 231 259 208 202 259 247 220
21 19 17 15 14 11 8 7 6 3 1 357 4 8 2 348 40 355 26 331 70 59 62 354 347 346 343 333 344 336 329 311 349 323 318 321 325 323 319 263 174 180 191 161 177 39 199
20 18 16 13 13 11 8 6 5 3 358 353 354 2 6 23 247 33 291 310 93 58 38 332 322 289 332 28 286 337 322 346 337 328 320 326 323 337 342 359 341 213 203 204 151 116 27
19 17 14 12 12 9 7 5 3 1 357 352 349 8 3 13 10 272 314 263 61 42 313 329 321 339 340 356 345 325 355 357 138 327 335 290 330 10 312 300 292 23 357 113 105 89 252
17 15 15 11 10 8 5 4 2 360 354 352 351 16 21 360 330 317 327 36 48 61 324 332 326 335 328 349 341 356 353 12 29 344 1 318 2 360 357 351 7 9 52 343 149 189 213
18 13 14 10 9 6 4 3 1 360 354 349 344 26 352 33 344 353 40 54 65 323 323 305 320 323 329 0 332 342 351 15 21 6 313 345 1 1 343 355 317 286 29 215 172 157 170
20 14 12 9 7 6 3 2 360 358 355 349 10 348 18 342 343 31 68 50 107 323 317 314 322 347 320 348 349 357 356 10 350 3 1 339 321 330 5 19 14 335 17 340 55 149 111
21 16 13 9 6 6 4 2 360 356 355 3 65 32 9 336 348 45 55 88 57 333 315 319 350 17 324 323 351 7 352 326 351 359 347 307 309 352 347 4 26 21 327 49 346 357 98
16 17 13 9 5 5 4 3 0 356 356 30 52 43 287 346 41 43 67 67 324 319 13 5 325 302 296 304 320 316 292 297 7 339 337 297 13 306 348 29 2 7 10 330 302 220 182
15 18 13 10 6 5 4 3 2 359 355 43 79 40 321 6 52 23 43 354 328 312 6 339 12 278 288 305 308 315 317 227 347 330 348 287 89 302 239 210 25 38 356 301 296 1 24
16 17 14 11 10 7 4 3 5 4 18 78 72 291 331 46 60 11 330 327 321 343 347 352 318 25 326 291 349 280 320 287 342 352 2 319 360 339 351 349 16 15 5 355 226 96 20
12 14 14 14 13 8 5 3 5 6 18 78 78 20 342 50 79 93 358 336 327 6 286 342 277 357 326 326 200 295 307 302 337 341 1 41 38 88 98 335 352 0 6 11 26 50 37
7 11 15 15 17 11 10 6 5 7 19 86 29 46 185 345 10 55 6 332 322 344 338 356 334 18 201 312 323 313 317 310 315 352 5 63 41 6 277 315 299 23 12 14 25 19 49
4 7 18 17 22 15 14 12 9 7 29 79 100 107 359 151 301 13 2 302 306 311 267 316 180 322 148 177 179 286 337 173 254 327 14 1 332 343 295 340 299 24 15 12 15 3 21
1 4 15 18 26 19 18 17 18 13 32 84 349 38 101 301 4 66 240 254 272 5 258 229 244 6 305 234 206 238 221 253 278 318 317 357 354 24 300 347 352 18 5 356 8 18 331
359 355 13 22 26 25 23 20 25 29 51 104 84 94 83 271 122 221 203 231 276 291 222 276 118 114 251 316 283 194 202 237 245 266 244 306 64 72 292 0 41 272 331 322 323 37 10
337 337 359 24 27 30 29 25 29 40 48 76 90 97 110 273 241 272 236 253 321 305 262 247 262 226 324 327 19 7 350 18 296 190 225 147 115 31 77 61 286 346 348 349 5 341 2
292 308 338 16 31 33 31 25 26 35 57 82 66 109 104 110 257 159 142 171 260 325 325 254 306 331 19 59 54 64 325 276 311 332 140 95 83 101 26 97 171 240 279 336 229 324 4
266 265 288 304 356 17 4 3 0 6 102 116 133 123 95 104 250 141 186 186 140 134 241 308 334 350 35 20 57 40 297 161 326 307 331 339 359 89 51 174 291 252 276 290 63 276 346
254 244 241 260 292 329 340 338 333 338 354 127 182 167 113 162 269 198 182 140 129 113 137 266 32 340 22 52 81 269 187 284 330 223 213 190 81 290 74 49 328 196 326 115 220 298 286
242 247 242 253 276 311 321 322 324 332 74 146 259 148 126 182 241 252 246 207 182 183 142 343 178 166 185 77 22 85 287 358 188 284 328 321 182 211 171 221 238 254 191 232 173 197 267